Overview Statistics Trail Chart Weather Telemetry Raw packets
 

This is the latest recevied weather packets stored in our database for station/object WA6ODQ-13. If no packets are shown the sender has not sent any weather packets the latest 10 day(s).

<< 75 76 77 78 79 80 81 >>
Time Temp. Humidity Pressure Rain* Wind** Luminosity Snow
1788130735 30.56° C 40% 1009.1 hPa 0 mm - 456 W/m² -
1788130431 30.56° C 39% 1009 hPa 0 mm - 468 W/m² -
1788130125 31.11° C 39% 1009.1 hPa 0 mm - 480 W/m² -
1788129821 30.56° C 39% 1009.1 hPa 0 mm - 491 W/m² -
1788129516 30° C 41% 1009.1 hPa 0 mm - 502 W/m² -
1788129212 30° C 41% 1009.4 hPa 0 mm - 513 W/m² -
1788128911 30° C 41% 1009.3 hPa 0 mm - 522 W/m² -
1788128607 30° C 41% 1009.4 hPa 0 mm - 534 W/m² -
1788128302 30° C 40% 1009.5 hPa 0 mm - 544 W/m² -
1788127999 30.56° C 41% 1009.6 hPa 0 mm - 553 W/m² -
1788127699 29.44° C 42% 1009.5 hPa 0 mm - 563 W/m² -
1788127398 30° C 41% 1009.7 hPa 0 mm - 571 W/m² -
1788127096 30° C 41% 1009.8 hPa 0 mm - 581 W/m² -
1788126791 29.44° C 43% 1009.8 hPa 0 mm - 587 W/m² -
1788126486 29.44° C 42% 1009.8 hPa 0 mm - 596 W/m² -
1788126181 29.44° C 43% 1010 hPa 0 mm - 604 W/m² -
1788125881 30° C 42% 1010.2 hPa 0 mm - 611 W/m² -
1788125576 28.89° C 44% 1010.2 hPa 0 mm - 618 W/m² -
1788125272 28.33° C 44% 1010.2 hPa 0 mm - 625 W/m² -
1788124968 28.33° C 45% 1010.4 hPa 0 mm - 631 W/m² -
1788124666 28.89° C 44% 1010.5 hPa 0 mm - 637 W/m² -
1788124366 28.89° C 44% 1010.3 hPa 0 mm - 642 W/m² -
1788124062 28.33° C 44% 1010.3 hPa 0 mm - 646 W/m² -
1788123761 28.33° C 45% 1010.6 hPa 0 mm - 653 W/m² -
1788123458 27.78° C 45% 1010.5 hPa 0 mm - 655 W/m² -

* Rain latest hour (hover to see other rain measurements)
** Current wind speed in m/s (hover to see current wind gust speed)